This is the latest recevied weather packets stored in our database for station/object DB7GV-8. If no packets are shown the sender has not sent any weather packets the latest 10 day(s).
| Time | Temp. | Humidity | Pressure | Rain* | Wind** | Luminosity | Snow |
|---|---|---|---|---|---|---|---|
| 1777561008 | 21.67° C | 21% | 1022 hPa | - | - | - | - |
| 1777559197 | 22.22° C | 22% | 1022.3 hPa | - | - | - | - |
| 1777558292 | 21.67° C | 22% | 1022.3 hPa | - | - | - | - |
| 1777557386 | 21.67° C | 22% | 1022.3 hPa | - | - | - | - |
| 1777556480 | 22.22° C | 22% | 1022.2 hPa | - | - | - | - |
| 1777555575 | 22.22° C | 22% | 1022.3 hPa | - | - | - | - |
| 1777554670 | 21.67° C | 23% | 1022.4 hPa | - | - | - | - |
| 1777553764 | 22.22° C | 23% | 1022.4 hPa | - | - | - | - |
| 1777552859 | 22.22° C | 22% | 1022.5 hPa | - | - | - | - |
| 1777551954 | 21.67° C | 22% | 1022.6 hPa | - | - | - | - |
| 1777551049 | 21.67° C | 23% | 1022.7 hPa | - | - | - | - |
| 1777550142 | 22.78° C | 23% | 1022.7 hPa | - | - | - | - |
| 1777549237 | 22.22° C | 22% | 1023 hPa | - | - | - | - |
| 1777548332 | 21.11° C | 22% | 1022.9 hPa | - | - | - | - |
| 1777547426 | 21.67° C | 22% | 1023 hPa | - | - | - | - |
| 1777546521 | 22.22° C | 22% | 1023.1 hPa | - | - | - | - |
| 1777545615 | 21.67° C | 22% | 1023.1 hPa | - | - | - | - |
| 1777542903 | 22.22° C | 22% | 1023.3 hPa | - | - | - | - |
| 1777541994 | 22.22° C | 21% | 1023.4 hPa | - | - | - | - |
| 1777541088 | 21.67° C | 21% | 1023.6 hPa | - | - | - | - |
| 1777540183 | 21.67° C | 20% | 1023.6 hPa | - | - | - | - |
| 1777539277 | 21.67° C | 21% | 1023.6 hPa | - | - | - | - |
| 1777538372 | 20.56° C | 21% | 1023.5 hPa | - | - | - | - |
| 1777537467 | 20.56° C | 20% | 1023.5 hPa | - | - | - | - |
| 1777536561 | 36.67° C | 10% | 1023.5 hPa | - | - | - | - |
* Rain since midnight (hover to see other rain measurements)
** Current wind speed in m/s (hover to see current wind gust speed)